[[{"header":{"parameterUnit":"m.s-1","parameterCategory":1,"la1":30.2991,"la2":30.254,"lo1":-89.0895,"lo2":-89.0444,"dy":0.0017,"dx":0.0017,"nx":28,"ny":28,"refTime":"2025-07-18T21:00:00:Z","depth":0,"parameterNumber":2,"parameterNumberName":"U-component_of_WINDS"},"data":[0,0,0,0,0,0,0,0,0,0,0,0,0,0,0,0,0,0,0,0,0,0,0,0,0,0,0,0,0,0,0,0,0,0,0,0,0,0,0,0,0,0,0,0,0,0,0,0,0,0,0,0,0,0,0,0,0,0,1.1352,1.1353,0,1.1435,1.1436,1.1436,1.1492,1.1493,1.1493,1.1493,1.1581,1.1583,1.1585,0,0,0,0,0,0,0,0,0,0,0,0,0,1.1246,1.1247,1.1352,1.1353,1.1354,1.1434,1.1436,1.1437,1.1492,1.1493,1.1493,1.1494,1.158,1.1582,1.1585,0,0,0,0,0,0,0,0,0,0,0,0,0,1.1306,1.1248,1.1352,1.1392,1.1396,1.1434,1.1436,1.1437,1.1492,1.1493,1.1493,1.1494,1.1579,1.1582,1.1585,1.1592,0,0,1.1594,1.1595,0,0,0,0,0,0,0,0,1.1303,1.131,1.1385,1.1389,1.1394,1.1454,1.143,1.1489,1.1492,1.1456,1.1493,1.1494,1.1538,1.1545,1.1559,1.1596,1.1599,1.1594,1.1596,1.1597,1.1598,0,0,0,0,0,0,0,1.1299,1.1307,1.1385,1.1386,1.1391,1.1406,1.1415,1.1442,1.1493,1.1459,1.1463,1.1472,1.1541,1.1556,1.1561,1.1601,1.1594,1.1597,1.1599,1.16,1.1647,1.1647,0,0,0,0,0,0,1.1288,1.1303,1.1382,1.1387,1.1349,1.1407,1.1418,1.1434,1.1493,1.1502,1.1471,1.1474,1.155,1.1558,1.1565,1.1576,1.1597,1.16,1.1602,1.1648,1.1647,1.1646,0,0,0,0,0,0,1.1285,1.1294,1.1379,1.1346,1.1358,1.1409,1.1426,1.1435,1.145,1.1502,1.1512,1.1477,1.1551,1.156,1.1584,1.158,1.1601,1.1604,1.1648,1.1647,1.1647,1.1599,0,0,0,0,0,0,1.1282,1.1293,1.1295,1.1346,1.136,1.1396,1.1426,1.1436,1.1455,1.1459,1.151,1.1519,1.1552,1.1579,1.1587,1.1584,1.1606,1.1649,1.1648,1.1647,1.1601,1.1596,1.1593,0,0,0,0,0,1.1278,1.1279,1.1295,1.1304,1.1364,1.1396,1.1404,1.1442,1.1454,1.1457,1.1491,1.1517,1.1579,1.1581,1.1591,1.1588,1.1649,1.1648,1.1647,1.1603,1.1597,1.1593,0,0,0,0,0,0,1.1228,1.1287,1.1305,1.1323,1.1354,1.1405,1.141,1.1435,1.1464,1.1467,1.1513,1.1524,1.1543,1.1568,1.157,1.1598,1.1617,1.1618,1.1581,1.1576,1.1572,1.1565,1.1609,0,0,0,0,0,1.1219,1.1239,1.129,1.13,1.1315,1.136,1.1375,1.1401,1.1436,1.145,1.1485,1.1518,1.1545,1.1562,1.159,1.1605,1.1617,1.1608,1.1604,1.16,1.16,1.161,1.1607,1.1643,1.1643,1.1643,0,0,1.12,1.1235,1.1245,1.1291,1.1318,1.1339,1.1371,1.1391,1.1407,1.1453,1.1478,1.1504,1.1545,1.1564,1.1574,1.1586,1.1593,1.1598,1.1595,1.1597,1.1608,1.1605,1.1602,1.1642,1.1642,1.1642,0,0,1.1178,1.1205,1.1217,1.1244,1.1284,1.1314,1.1316,1.1364,1.1384,1.1408,1.1443,1.1464,1.1509,1.1536,1.1556,1.1543,1.1568,1.155,1.1529,1.1538,1.1535,1.1533,1.1528,1.1526,1.155,1.155,1.155,0,1.115,1.1182,1.1221,1.1239,1.1258,1.13,1.1312,1.1337,1.1384,1.1397,1.1409,1.1466,1.1496,1.1522,1.1519,1.1534,1.1539,1.1545,1.1532,1.153,1.1529,1.1525,1.1523,1.1548,1.1548,1.1548,1.1549,0,1.1146,1.1167,1.1172,1.1216,1.1236,1.1251,1.1293,1.1309,1.1333,1.1362,1.1387,1.1424,1.146,1.1468,1.1493,1.1498,1.1504,1.1523,1.1544,1.1522,1.1519,1.1518,1.1544,1.1545,1.1546,1.1546,0,0,1.1094,1.1159,1.116,1.118,1.1227,1.1245,1.1263,1.1297,1.1309,1.1341,1.1357,1.1394,1.1412,1.1434,1.1462,1.147,1.1457,1.1489,1.149,1.1481,1.1465,1.1451,1.1448,1.1474,1.1474,1.1474,1.1462,0,1.1079,1.1111,1.1146,1.1167,1.1188,1.1227,1.1242,1.1273,1.1301,1.1323,1.1353,1.1379,1.14,1.1414,1.1424,1.1457,1.1455,1.1458,1.1491,1.1491,1.1479,1.1447,1.1431,1.1418,1.1461,1.1461,1.1461,0,1.1065,1.1093,1.1115,1.116,1.117,1.1183,1.1217,1.1238,1.1274,1.1293,1.1317,1.1347,1.1368,1.1386,1.1416,1.1417,1.1433,1.1451,1.1451,1.1456,1.1475,1.145,1.1415,1.1413,1.1459,1.146,1.146,0,1.1025,1.1069,1.1088,1.1104,1.1157,1.1165,1.1188,1.1224,1.1242,1.1272,1.1285,1.1317,1.1335,1.1359,1.1397,1.1406,1.1423,1.1444,1.144,1.1439,1.1442,1.1441,1.1408,1.1451,1.1451,1.1451,1.1451,0,1.1004,1.1016,1.107,1.1082,1.1097,1.1138,1.1151,1.1178,1.121,1.1228,1.1264,1.1281,1.1329,1.1351,1.1381,1.1401,1.1409,1.1426,1.1433,1.1422,1.142,1.1433,1.1435,1.1451,1.1451,1.1451,1.1451,0,1.0962,1.0999,1.1022,1.107,1.1082,1.1091,1.1133,1.1146,1.1175,1.1197,1.1205,1.125,1.1278,1.1318,1.1359,1.1378,1.1394,1.1407,1.1382,1.1386,1.138,1.138,1.1354,1.1353,1.1397,1.1396,1.1396,0,1.0946,1.0956,1.1005,1.1019,1.104,1.1062,1.1081,1.1121,1.1139,1.1181,1.1189,1.1219,1.1246,1.1289,1.1326,1.1357,1.1371,1.136,1.1376,1.1364,1.1371,1.1369,1.1371,1.1356,1.1355,1.1354,1.1354,0,1.0914,1.0931,1.0956,1.0986,1.1007,1.1033,1.1062,1.1071,1.1118,1.1136,1.1165,1.1185,1.1226,1.1256,1.1292,1.1316,1.1343,1.1348,1.1349,1.1338,1.1323,1.1331,1.1371,1.1349,1.1349,1.135,1.135,1.135,1.0885,1.0895,1.0931,1.0957,1.0982,1.1008,1.1022,1.1052,1.1076,1.1112,1.1135,1.1162,1.1198,1.1249,1.1272,1.1294,1.1305,1.1306,1.1307,1.1306,1.1302,1.1319,1.1301,1.1301,1.1301,1.1302,1.1302,0,1.0855,1.0879,1.0903,1.094,1.0961,1.0983,1.1015,1.1031,1.1054,1.1085,1.111,1.1143,1.1172,1.1211,1.1243,1.1253,1.1266,1.126,1.126,1.1265,1.1291,1.1287,1.1249,1.1249,1.1249,1.1249,1.1249,1.1249,1.0841,1.086,1.0882,1.0914,1.0939,1.0965,1.0982,1.1005,1.103,1.1064,1.1088,1.1113,1.1148,1.1182,1.121,1.1221,1.1231,1.1221,1.1236,1.1259,1.1264,1.1268,1.1265,1.1223,1.1223,1.1209,1.1208,1.1208]},{"header":{"parameterUnit":"m.s-1","parameterCategory":1,"la1":30.2991,"la2":30.254,"lo1":-89.0895,"lo2":-89.0444,"dy":0.0017,"dx":0.0017,"nx":28,"ny":28,"refTime":"2025-07-18T21:00:00:Z","depth":0,"parameterNumber":3,"parameterNumberName":"V-component_of_WINDS"},"data":[0,0,0,0,0,0,0,0,0,0,0,0,0,0,0,0,0,0,0,0,0,0,0,0,0,0,0,0,0,0,0,0,0,0,0,0,0,0,0,0,0,0,0,0,0,0,0,0,0,0,0,0,0,0,0,0,0,0,2.0833,2.0833,0,2.0809,2.0808,2.0808,2.0824,2.0825,2.0825,2.0826,2.0799,2.0797,2.0796,0,0,0,0,0,0,0,0,0,0,0,0,0,2.089,2.0889,2.0833,2.0833,2.0833,2.0809,2.0808,2.0808,2.0824,2.0825,2.0826,2.0827,2.0799,2.0798,2.0796,0,0,0,0,0,0,0,0,0,0,0,0,0,2.0865,2.0889,2.0833,2.0838,2.0838,2.0809,2.0808,2.0808,2.0824,2.0825,2.0826,2.0827,2.08,2.0798,2.0796,2.076,0,0,2.0789,2.0788,0,0,0,0,0,0,0,0,2.0867,2.0863,2.0837,2.0837,2.0837,2.0821,2.0818,2.0792,2.0823,2.0829,2.0826,2.0828,2.0805,2.0803,2.0795,2.0759,2.0758,2.0789,2.0788,2.0787,2.0786,0,0,0,0,0,0,0,2.0868,2.0864,2.0823,2.0837,2.0837,2.084,2.0837,2.0813,2.0811,2.0829,2.083,2.0827,2.0805,2.0797,2.0795,2.0757,2.0789,2.0787,2.0786,2.0785,2.0687,2.0685,0,0,0,0,0,0,2.087,2.0866,2.0824,2.0823,2.0855,2.0838,2.0835,2.0825,2.0811,2.081,2.0826,2.0828,2.0801,2.0797,2.0794,2.0749,2.0787,2.0785,2.0784,2.0688,2.0686,2.0685,0,0,0,0,0,0,2.0871,2.0866,2.0825,2.0844,2.0839,2.0836,2.0824,2.0824,2.0816,2.0809,2.0809,2.0818,2.0801,2.0797,2.0768,2.0748,2.0784,2.0782,2.0689,2.0687,2.0686,2.066,0,0,0,0,0,0,2.0873,2.0867,2.0854,2.0844,2.0838,2.08,2.0823,2.0822,2.0812,2.0814,2.0802,2.0801,2.0802,2.0771,2.0766,2.0746,2.078,2.0691,2.0689,2.0686,2.0662,2.0657,2.0653,0,0,0,0,0,2.0875,2.0848,2.0853,2.0848,2.0823,2.0799,2.0796,2.0798,2.0811,2.0797,2.0792,2.0801,2.0752,2.0768,2.0762,2.0741,2.0692,2.0689,2.0686,2.0664,2.0658,2.0653,0,0,0,0,0,0,2.0856,2.0847,2.0853,2.0822,2.0811,2.0802,2.0785,2.0792,2.0776,2.0779,2.0781,2.0778,2.0747,2.0742,2.076,2.0704,2.0724,2.0719,2.0709,2.0703,2.0698,2.0699,2.0778,0,0,0,0,0,2.0848,2.0831,2.0824,2.0797,2.0792,2.0789,2.0779,2.0782,2.077,2.0765,2.0759,2.0746,2.0728,2.0715,2.0698,2.0662,2.0658,2.0645,2.064,2.0636,2.0631,2.0609,2.0602,2.0675,2.0675,2.0675,0,0,2.0832,2.0825,2.0814,2.0793,2.0785,2.0765,2.0785,2.0765,2.0749,2.0762,2.0733,2.0728,2.0714,2.0681,2.0665,2.0675,2.061,2.0632,2.0629,2.0627,2.0605,2.0598,2.0592,2.0673,2.0673,2.0674,0,0,2.0792,2.0786,2.0762,2.0753,2.074,2.0739,2.0733,2.0722,2.0719,2.069,2.0699,2.068,2.0649,2.0638,2.0628,2.0581,2.0587,2.0575,2.0549,2.0527,2.0521,2.0516,2.0496,2.049,2.0571,2.0571,2.0571,0,2.0773,2.0745,2.0748,2.0726,2.0715,2.0726,2.0701,2.0692,2.0674,2.0665,2.0677,2.0635,2.0627,2.0589,2.0578,2.0571,2.0562,2.0576,2.0522,2.0517,2.0512,2.0493,2.0486,2.057,2.057,2.057,2.057,0,2.072,2.07,2.0682,2.0664,2.0652,2.0628,2.0627,2.0613,2.0616,2.0613,2.0582,2.0572,2.0552,2.0543,2.0547,2.0505,2.0511,2.0522,2.0541,2.0503,2.0485,2.0479,2.0567,2.0568,2.0568,2.0569,0,0,2.0667,2.0651,2.0644,2.0634,2.0621,2.0605,2.058,2.056,2.0547,2.0534,2.0512,2.0484,2.0493,2.0482,2.0484,2.0465,2.0424,2.0478,2.0478,2.0466,2.0374,2.0364,2.0356,2.0429,2.0428,2.0427,2.0375,0,2.0624,2.0582,2.0584,2.0544,2.0524,2.0533,2.0511,2.0499,2.0495,2.0476,2.0471,2.045,2.0466,2.0459,2.044,2.0433,2.0406,2.0437,2.0406,2.0405,2.0407,2.0347,2.0337,2.0288,2.0368,2.0367,2.0366,0,2.0568,2.0553,2.0511,2.0497,2.0489,2.0469,2.045,2.0433,2.0418,2.0416,2.0403,2.0407,2.038,2.0401,2.0362,2.0383,2.037,2.0365,2.0363,2.0358,2.0382,2.0338,2.0273,2.0265,2.0356,2.0357,2.0357,0,2.053,2.0499,2.0469,2.0461,2.0446,2.0431,2.0424,2.0411,2.0398,2.038,2.0371,2.0351,2.0339,2.0322,2.032,2.0336,2.0279,2.0301,2.0275,2.0274,2.0261,2.0261,2.019,2.0257,2.0257,2.0257,2.0257,0,2.0481,2.0454,2.0451,2.0433,2.0402,2.0404,2.0373,2.0366,2.0354,2.0333,2.034,2.032,2.0319,2.0297,2.0295,2.0261,2.0257,2.0252,2.0252,2.025,2.025,2.024,2.0243,2.0255,2.0255,2.0256,2.0256,0,2.0432,2.043,2.0397,2.0385,2.0381,2.0359,2.0347,2.0328,2.0324,2.0297,2.029,2.0284,2.0258,2.0255,2.0225,2.0224,2.0182,2.0186,2.0187,2.0186,2.0159,2.016,2.0076,2.0064,2.0142,2.0141,2.014,0,2.04,2.0379,2.0364,2.035,2.0342,2.0321,2.0307,2.0307,2.0292,2.0273,2.0256,2.0231,2.0211,2.017,2.0161,2.0138,2.014,2.0112,2.0136,2.0135,2.0136,2.0136,2.0132,2.0107,2.0106,2.0105,2.0105,0,2.0341,2.034,2.0321,2.03,2.0284,2.0268,2.0252,2.0241,2.0239,2.0221,2.0195,2.018,2.0149,2.0124,2.01,2.0091,2.0096,2.0097,2.0089,2.0086,2.0086,2.0083,2.0171,2.0099,2.0099,2.01,2.01,2.01,2.0297,2.0278,2.0264,2.0241,2.023,2.0215,2.0195,2.0189,2.0168,2.0143,2.0144,2.0115,2.0098,2.0067,2.0056,2.0032,2.004,2.003,2.0026,2.0023,2.0019,2.0092,2.0028,2.0028,2.0028,2.0028,2.0028,0,2.0236,2.0227,2.0207,2.0185,2.0166,2.0174,2.0157,2.014,2.0115,2.0099,2.0079,2.0048,2.0023,2.0012,1.9986,1.9969,1.997,1.9962,1.9962,1.9958,2.0014,2.0022,1.996,1.996,1.996,1.9961,1.9961,1.9961,2.0202,2.017,2.0167,2.0127,2.0118,2.009,2.0079,2.0064,2.0051,2.0016,1.9995,1.9989,1.9974,1.9947,1.9923,1.992,1.9909,1.9899,1.9897,1.9948,1.9955,1.9962,1.9969,1.9897,1.9897,1.9843,1.9842,1.9842]}]]